Starlink 31162

operational
NORAD ID: 58791 Int'l Des: 2024-012 Owner: SPXS Country: US Constellation: starlink
LEOCIRCULAR

Starlink 31162について

説明を読み込み中...

リアルタイム位置

3D地球を読み込み中...

次回通過

高度履歴

Altitude vs Time

uPlot chart will show altitude changes over time

軌道要素

1 58791U 24012E 25304.00073102 -.00003395 00000-0 -11391-3 0 9996
2 58791 43.0041 177.5021 0002009 278.9508 81.1116 15.27568112101409
Epoch: Oct 31, 2025 • Age: 31 hours

現在のステータス

高度 492.6 km
速度 7.62 km/s
衛星直下点 -35.94°S, 103.1°W
打ち上げ日 Jan 15, 2024
運用期間 1.7 years
タイプ internet

技術仕様

分類 Payload
質量 730.00 kg
乾燥質量 700.00 kg
総質量 730.00 kg
長さ 0.30 m
直径 4.10 m
スパン 29.00 m
形状 Box + pan
製造者 SPXS
バスタイプ Starlink V2M
フェーズステータス In Orbit
所有者/国 SPXS/US

大規模コンステレーション

Loading constellations...